Flag for Russia Weather past 2 weeks in Nizhny Novgorod, Russia

Now
32 °F

Low clouds.


Feels Like: 25 °F
Forecast: 24 / 30 °F
Wind: 8 mph from Southeast

Location: Nizhny Novgorod/Strigino

Current Time: Feb 28, 2015 at 3:34:39 PM

Latest Report: Feb 28, 2015 at 3:00 PM


Visibility: 6 mi

Pressure: 30.24 "Hg

Humidity: 93%

Dew point: 30 °F

Location of Nizhny NovgorodLocation

Historic Weather in Nizhny Novgorod — Graph

°F

Nizhny Novgorod temperature yesterday

Maximum temperature yesterday: 32 °F (at 8:00 PM)
Minimum temperature yesterday: 27 °F (at 12:00 AM)
Average temperature yesterday: 29 °F

Past Weeks' High & Low Weather Summary

 TemperatureHumidityPressure
High43 °F (Feb 22, 4:00 PM)100% (Feb 15, 7:00 PM)30.57 "Hg (Feb 15, 7:00 PM)
Low-8 °F (Feb 18, 7:00 AM)24% (Feb 18, 5:00 PM)29.74 "Hg (Feb 20, 11:30 PM)
Average27 °F74%30.20 "Hg
* Reported Feb 13 2:00 PM — Feb 28 2:30 PM, Nizhny Novgorod, Weather by CustomWeather, © 2015

Note: Actual official high and low records may vary slightly from our data, if they occured in-between our weather recording intervals... More about our weather records

Advertising

Nizhny Novgorod weather history for previous 24 hours

 ConditionsComfort  
Time TempWeatherWind HumidityBarometerVisibility
2:30 PM
Sat, Feb 28
32 °FLow clouds.8 mph93%30.24 "Hg6 mi
2:00 PM32 °FLow clouds.8 mph93%30.24 "Hg5 mi
1:30 PM34 °FLow clouds.8 mph87%30.27 "Hg5 mi
1:00 PM34 °FLow clouds.8 mph87%30.27 "Hg5 mi
12:30 PM34 °FLow clouds.8 mph87%30.27 "Hg5 mi
12:00 PM34 °FLow clouds.8 mph87%30.27 "Hg5 mi
11:30 AM32 °FLow clouds.10 mph93%30.27 "Hg5 mi
11:00 AM32 °FLow clouds.10 mph93%30.27 "Hg4 mi
10:30 AM32 °FIce fog.10 mph93%30.27 "Hg3 mi
10:00 AM32 °FIce fog.10 mph93%30.27 "Hg3 mi
9:30 AM32 °FIce fog.8 mph93%30.27 "Hg3 mi
9:00 AM32 °FIce fog.10 mph93%30.27 "Hg3 mi
8:30 AM32 °FIce fog.10 mph93%30.27 "Hg3 mi
8:00 AM32 °FIce fog.8 mph93%30.27 "Hg2 mi
7:30 AM32 °FIce fog.6 mph93%30.27 "Hg2 mi
6:30 AM32 °FIce fog.6 mph100%30.27 "Hg2 mi
6:00 AM32 °FIce fog.6 mph100%30.27 "Hg2 mi
5:30 AM32 °FDrizzle. Ice fog.6 mph100%30.30 "Hg2 mi
5:00 AM32 °FDrizzle. Ice fog.8 mph93%30.30 "Hg1 mi
4:30 AM32 °FLow clouds.8 mph93%30.30 "Hg4 mi
4:00 AM32 °FLow clouds.8 mph93%30.30 "Hg4 mi
3:30 AM32 °FLow clouds.8 mph93%30.30 "Hg4 mi
3:00 AM32 °FLow clouds.8 mph93%30.30 "Hg4 mi
2:30 AM32 °FOvercast.6 mph93%30.30 "Hg4 mi
2:00 AM32 °FOvercast.6 mph93%30.30 "Hg4 mi
1:30 AM32 °FOvercast.3 mph93%30.30 "Hg4 mi
1:00 AM32 °FLight snow. Overcast.6 mph93%30.30 "Hg4 mi
12:30 AM32 °FLight snow. Overcast.6 mph93%30.33 "Hg3 mi
12:00 AM32 °FLight snow. Overcast.3 mph93%30.33 "Hg3 mi
11:30 PM
Fri, Feb 27
32 °FLight snow. Overcast.3 mph93%30.33 "Hg3 mi
11:00 PM32 °FLight snow. Overcast.6 mph93%30.33 "Hg3 mi
10:30 PM32 °FOvercast.6 mph93%30.33 "Hg4 mi
10:00 PM32 °FOvercast.6 mph93%30.33 "Hg4 mi
9:30 PM32 °FOvercast.6 mph87%30.33 "Hg4 mi
9:00 PM32 °FOvercast.6 mph87%30.33 "Hg4 mi
8:30 PM32 °FOvercast.6 mph87%30.33 "Hg4 mi
8:00 PM32 °FLow clouds.8 mph93%30.36 "Hg4 mi
7:30 PM30 °FIce fog.6 mph100%30.36 "Hg3 mi
7:00 PM30 °FIce fog.6 mph100%30.36 "Hg2 mi
6:30 PM30 °FIce fog.6 mph93%30.36 "Hg3 mi
6:00 PM30 °FIce fog.6 mph93%30.36 "Hg3 mi
5:30 PM30 °FLow clouds.6 mph93%30.36 "Hg4 mi
5:00 PM30 °FLow clouds.6 mph93%30.36 "Hg4 mi
4:30 PM30 °FOvercast.6 mph93%30.36 "Hg4 mi
4:00 PM30 °FOvercast.6 mph93%30.36 "Hg5 mi
3:30 PM30 °FOvercast.6 mph86%30.36 "Hg6 mi
3:00 PM30 °FOvercast.6 mph86%30.36 "Hg5 mi
Weather by CustomWeather, © 2015

See weather overviewHow to use our weather pages